QPF
0.05 0.06 0.06 0.05 0.03 0.03 0.02 0.02 0.02 0.01 0.01 0.00 0.00 0.00 0.00 0.01 0.02 0.01 0.01 0.01 0.00 0.01 0.01 0.03 0.04 0.04 0.05 0.07 0.08 0.06 0.04 0.02 0.02 0.02 0.02 0.02 0.01 0.01 0.01 0.01 0.01 0.01 0.01 0.01
0.06 0.04 0.03 0.04 0.04 0.04 0.04 0.03 0.02 0.01 0.01 0.01 0.00 0.00 0.00 0.00 0.01 0.01 0.00 0.00 0.01 0.01 0.01 0.03 0.04 0.05 0.05 0.04 0.05 0.04 0.03 0.02 0.02 0.02 0.02 0.02 0.01 0.01 0.01 0.01 0.01 0.01 0.01 0.01
0.04 0.03 0.02 0.06 0.07 0.06 0.06 0.04 0.02 0.02 0.02 0.02 0.01 0.01 0.00 0.00 0.01 0.01 0.01 0.01 0.01 0.00 0.01 0.02 0.03 0.04 0.05 0.04 0.03 0.03 0.03 0.02 0.02 0.02 0.02 0.01 0.01 0.01 0.00 0.00 0.00 0.00 0.00 0.01
0.03 0.02 0.03 0.05 0.08 0.08 0.08 0.05 0.03 0.03 0.03 0.03 0.01 0.01 0.01 0.00 0.00 0.01 0.01 0.01 0.01 0.00 0.01 0.01 0.01 0.03 0.04 0.04 0.03 0.02 0.03 0.02 0.02 0.02 0.02 0.01 0.01 0.01 0.00 0.00 0.00 0.00 0.00 0.00
0.03 0.02 0.03 0.05 0.05 0.06 0.07 0.06 0.05 0.05 0.05 0.04 0.02 0.01 0.00 0.00 0.00 0.00 0.00 0.00 0.00 0.01 0.00 0.00 0.01 0.02 0.03 0.03 0.02 0.02 0.02 0.02 0.02 0.02 0.02 0.01 0.01 0.00 0.00 0.00 0.00 0.00 0.00 0.01
0.02 0.02 0.02 0.04 0.03 0.03 0.05 0.07 0.07 0.07 0.08 0.10 0.03 0.01 0.01 0.00 0.00 0.00 0.00 0.00 0.00 0.01 0.01 0.01 0.01 0.02 0.02 0.02 0.02 0.02 0.02 0.02 0.02 0.02 0.02 0.02 0.01 0.01 0.00 0.00 0.00 0.00 0.00 0.01
0.02 0.02 0.02 0.02 0.04 0.05 0.07 0.12 0.18 0.18 0.17 0.10 0.02 0.01 0.01 0.00 0.00 0.00 0.00 0.00 0.00 0.01 0.01 0.01 0.01 0.02 0.02 0.02 0.02 0.02 0.02 0.01 0.01 0.02 0.01 0.01 0.01 0.02 0.01 0.00 0.00 0.00 0.00 0.00
0.03 0.02 0.02 0.02 0.04 0.07 0.07 0.11 0.13 0.13 0.09 0.04 0.02 0.01 0.01 0.00 0.00 0.00 0.00 0.00 0.01 0.01 0.01 0.01 0.01 0.01 0.01 0.02 0.02 0.01 0.01 0.01 0.01 0.01 0.01 0.01 0.02 0.01 0.01 0.01 0.01 0.00 0.00 0.00
0.04 0.02 0.01 0.02 0.02 0.04 0.08 0.10 0.08 0.08 0.05 0.03 0.03 0.02 0.02 0.00 0.00 0.00 0.00 0.00 0.00 0.01 0.01 0.02 0.01 0.01 0.01 0.02 0.02 0.01 0.01 0.02 0.02 0.01 0.01 0.01 0.01 0.01 0.01 0.00 0.00 0.00 0.00 0.00
0.04 0.03 0.02 0.02 0.02 0.03 0.06 0.08 0.10 0.10 0.07 0.05 0.03 0.02 0.02 0.01 0.00 0.00 0.00 0.00 0.00 0.00 0.01 0.02 0.02 0.01 0.01 0.01 0.02 0.02 0.01 0.02 0.03 0.02 0.01 0.01 0.01 0.01 0.01 0.00 0.00 0.00 0.00 0.00
0.03 0.04 0.03 0.03 0.04 0.04 0.03 0.06 0.11 0.10 0.06 0.05 0.04 0.03 0.02 0.01 0.00 0.00 0.00 0.00 0.00 0.00 0.01 0.01 0.02 0.02 0.02 0.01 0.01 0.02 0.02 0.02 0.02 0.02 0.02 0.01 0.01 0.01 0.00 0.00 0.00 0.00 0.00 0.00
0.02 0.04 0.04 0.03 0.03 0.02 0.03 0.03 0.05 0.09 0.06 0.03 0.02 0.03 0.02 0.01 0.01 0.00 0.00 0.00 0.00 0.00 0.00 0.01 0.01 0.02 0.02 0.02 0.02 0.02 0.03 0.02 0.02 0.02 0.02 0.02 0.01 0.01 0.00 0.00 0.00 0.00 0.00 0.00
0.03 0.03 0.05 0.05 0.04 0.04 0.04 0.03 0.03 0.05 0.05 0.03 0.02 0.02 0.01 0.00 0.00 0.00 0.00 0.00 0.00 0.00 0.00 0.01 0.01 0.01 0.01 0.02 0.02 0.01 0.02 0.03 0.02 0.02 0.02 0.02 0.02 0.01 0.01 0.01 0.00 0.00 0.00 0.00
0.05 0.03 0.04 0.04 0.04 0.03 0.04 0.03 0.02 0.04 0.05 0.03 0.02 0.01 0.00 0.00 0.00 0.00 0.00 0.00 0.00 0.00 0.00 0.01 0.01 0.01 0.02 0.01 0.01 0.02 0.01 0.02 0.02 0.02 0.02 0.02 0.02 0.01 0.01 0.01 0.01 0.01 0.01 0.01
0.03 0.03 0.02 0.02 0.01 0.01 0.01 0.01 0.02 0.04 0.03 0.03 0.02 0.01 0.00 0.00 0.00 0.00 0.00 0.00 0.00 0.00 0.00 0.00 0.01 0.02 0.03 0.03 0.02 0.02 0.02 0.01 0.01 0.01 0.01 0.01 0.02 0.01 0.01 0.01 0.00 0.00 0.00 0.00
0.02 0.03 0.02 0.03 0.01 0.00 0.01 0.01 0.02 0.03 0.03 0.02 0.01 0.01 0.00 0.00 0.00 0.00 0.00 0.00 0.00 0.00 0.00 0.00 0.00 0.01 0.04 0.05 0.04 0.02 0.02 0.02 0.01 0.01 0.01 0.01 0.01 0.01 0.01 0.01 0.01 0.00 0.00 0.00
0.02 0.02 0.03 0.04 0.02 0.02 0.02 0.01 0.02 0.03 0.02 0.01 0.01 0.01 0.00 0.00 0.00 0.00 0.00 0.00 0.00 0.00 0.00 0.00 0.00 0.01 0.02 0.03 0.04 0.03 0.02 0.02 0.02 0.01 0.01 0.01 0.01 0.01 0.01 0.01 0.01 0.00 0.00 0.00
0.02 0.02 0.03 0.06 0.07 0.05 0.04 0.02 0.02 0.03 0.02 0.01 0.01 0.01 0.01 0.01 0.00 0.00 0.00 0.00 0.00 0.00 0.00 0.00 0.00 0.01 0.01 0.03 0.03 0.03 0.03 0.01 0.01 0.02 0.01 0.00 0.00 0.01 0.01 0.01 0.01 0.00 0.00 0.00
0.02 0.03 0.04 0.07 0.08 0.05 0.03 0.02 0.03 0.03 0.03 0.01 0.01 0.01 0.01 0.01 0.01 0.01 0.01 0.00 0.00 0.00 0.00 0.00 0.00 0.00 0.01 0.02 0.03 0.02 0.02 0.02 0.02 0.02 0.02 0.01 0.00 0.01 0.01 0.01 0.01 0.00 0.00 0.00
0.03 0.04 0.04 0.05 0.06 0.05 0.04 0.02 0.02 0.02 0.03 0.01 0.00 0.01 0.01 0.01 0.01 0.01 0.01 0.01 0.01 0.00 0.00 0.00 0.00 0.00 0.01 0.01 0.02 0.02 0.01 0.01 0.01 0.02 0.02 0.01 0.01 0.01 0.01 0.01 0.01 0.01 0.00 0.00
0.04 0.05 0.05 0.03 0.03 0.03 0.03 0.01 0.01 0.03 0.03 0.01 0.01 0.01 0.01 0.01 0.01 0.00 0.00 0.00 0.01 0.01 0.00 0.00 0.00 0.01 0.01 0.02 0.02 0.02 0.01 0.01 0.01 0.01 0.01 0.02 0.01 0.01 0.01 0.01 0.01 0.01 0.01 0.01
0.03 0.04 0.04 0.02 0.03 0.03 0.02 0.01 0.02 0.02 0.01 0.01 0.01 0.00 0.01 0.01 0.01 0.00 0.00 0.00 0.01 0.01 0.01 0.01 0.01 0.01 0.01 0.01 0.02 0.02 0.02 0.01 0.01 0.01 0.01 0.02 0.02 0.01 0.01 0.00 0.00 0.01 0.01 0.01
0.03 0.03 0.03 0.03 0.04 0.04 0.02 0.01 0.01 0.01 0.01 0.01 0.01 0.01 0.00 0.01 0.01 0.00 0.00 0.00 0.00 0.01 0.01 0.01 0.01 0.01 0.01 0.01 0.02 0.03 0.02 0.01 0.01 0.01 0.01 0.02 0.02 0.01 0.01 0.00 0.00 0.00 0.00 0.01
0.03 0.03 0.03 0.04 0.04 0.02 0.01 0.01 0.00 0.00 0.01 0.00 0.01 0.01 0.00 0.00 0.01 0.01 0.00 0.00 0.00 0.00 0.01 0.01 0.01 0.01 0.01 0.01 0.02 0.02 0.01 0.01 0.01 0.01 0.01 0.01 0.02 0.02 0.01 0.01 0.01 0.00 0.00 0.00
0.02 0.02 0.02 0.03 0.02 0.01 0.01 0.01 0.00 0.00 0.00 0.00 0.00 0.01 0.01 0.00 0.01 0.01 0.01 0.00 0.00 0.00 0.01 0.01 0.01 0.01 0.01 0.01 0.01 0.01 0.01 0.01 0.00 0.00 0.01 0.01 0.01 0.01 0.01 0.01 0.01 0.01 0.01 0.01
0.02 0.03 0.02 0.03 0.02 0.02 0.01 0.01 0.00 0.00 0.00 0.00 0.00 0.00 0.01 0.01 0.01 0.01 0.01 0.01 0.00 0.01 0.01 0.01 0.01 0.01 0.01 0.01 0.01 0.01 0.01 0.00 0.00 0.00 0.00 0.00 0.01 0.01 0.01 0.01 0.02 0.02 0.01 0.01
MSLP
1014.70 1014.45 1014.15 1013.82 1013.47 1013.15 1012.86 1012.63 1012.45 1012.31 1012.18 1012.01 1011.79 1011.48 1011.08 1010.61 1010.10 1009.59 1009.12 1008.73 1008.43 1008.26 1008.20 1008.27 1008.43 1008.69 1009.04 1009.47 1009.99 1010.59 1011.27 1012.03 1012.82 1013.64 1014.44 1015.22 1015.93 1016.58 1017.16 1017.68 1018.16 1018.62 1019.08 1019.55
1015.27 1014.96 1014.56 1014.10 1013.61 1013.13 1012.68 1012.31 1012.00 1011.76 1011.54 1011.33 1011.07 1010.76 1010.37 1009.93 1009.45 1008.96 1008.52 1008.13 1007.83 1007.63 1007.54 1007.54 1007.63 1007.81 1008.09 1008.47 1008.96 1009.57 1010.28 1011.09 1011.97 1012.88 1013.78 1014.65 1015.45 1016.16 1016.79 1017.34 1017.84 1018.31 1018.78 1019.27
1016.07 1015.69 1015.19 1014.59 1013.93 1013.26 1012.63 1012.07 1011.60 1011.22 1010.90 1010.62 1010.33 1010.01 1009.66 1009.27 1008.86 1008.46 1008.08 1007.74 1007.47 1007.26 1007.13 1007.06 1007.06 1007.14 1007.32 1007.61 1008.02 1008.58 1009.28 1010.11 1011.03 1012.00 1012.99 1013.94 1014.82 1015.60 1016.29 1016.89 1017.42 1017.92 1018.40 1018.90
1017.08 1016.62 1016.01 1015.27 1014.44 1013.60 1012.78 1012.05 1011.42 1010.89 1010.46 1010.10 1009.78 1009.47 1009.16 1008.85 1008.54 1008.24 1007.97 1007.71 1007.50 1007.31 1007.14 1007.01 1006.91 1006.87 1006.91 1007.06 1007.36 1007.81 1008.43 1009.21 1010.11 1011.10 1012.11 1013.11 1014.04 1014.89 1015.63 1016.29 1016.87 1017.40 1017.91 1018.41
1018.22 1017.69 1016.98 1016.12 1015.17 1014.19 1013.23 1012.35 1011.59 1010.94 1010.41 1009.98 1009.63 1009.33 1009.07 1008.84 1008.63 1008.45 1008.29 1008.14 1007.99 1007.84 1007.67 1007.48 1007.29 1007.12 1007.01 1006.99 1007.11 1007.40 1007.88 1008.53 1009.34 1010.25 1011.23 1012.22 1013.17 1014.05 1014.84 1015.55 1016.18 1016.75 1017.29 1017.81
1019.43 1018.83 1018.05 1017.13 1016.11 1015.05 1014.02 1013.06 1012.21 1011.49 1010.89 1010.40 1010.02 1009.71 1009.48 1009.31 1009.20 1009.12 1009.06 1009.01 1008.95 1008.84 1008.68 1008.46 1008.20 1007.91 1007.65 1007.45 1007.37 1007.45 1007.72 1008.17 1008.80 1009.57 1010.44 1011.35 1012.27 1013.14 1013.96 1014.70 1015.38 1016.00 1016.58 1017.13
1020.63 1019.99 1019.19 1018.25 1017.24 1016.19 1015.16 1014.20 1013.33 1012.57 1011.93 1011.40 1010.97 1010.65 1010.42 1010.27 1010.20 1010.19 1010.21 1010.25 1010.26 1010.21 1010.07 1009.85 1009.53 1009.15 1008.75 1008.38 1008.09 1007.94 1007.96 1008.17 1008.56 1009.12 1009.80 1010.58 1011.39 1012.22 1013.03 1013.79 1014.51 1015.19 1015.82 1016.41
1021.75 1021.10 1020.32 1019.44 1018.51 1017.55 1016.60 1015.70 1014.87 1014.12 1013.47 1012.89 1012.42 1012.04 1011.77 1011.60 1011.52 1011.53 1011.59 1011.67 1011.73 1011.74 1011.64 1011.43 1011.09 1010.66 1010.16 1009.64 1009.17 1008.79 1008.55 1008.49 1008.61 1008.91 1009.36 1009.94 1010.61 1011.34 1012.10 1012.87 1013.62 1014.34 1015.02 1015.67
1022.72 1022.10 1021.39 1020.63 1019.83 1019.03 1018.22 1017.44 1016.69 1015.99 1015.32 1014.72 1014.18 1013.72 1013.37 1013.12 1012.99 1012.96 1013.01 1013.10 1013.19 1013.22 1013.17 1012.98 1012.66 1012.21 1011.66 1011.04 1010.42 1009.85 1009.38 1009.06 1008.90 1008.92 1009.11 1009.46 1009.95 1010.54 1011.22 1011.95 1012.71 1013.47 1014.21 1014.92
1023.49 1022.94 1022.35 1021.74 1021.12 1020.50 1019.87 1019.24 1018.59 1017.94 1017.28 1016.64 1016.03 1015.48 1015.02 1014.66 1014.43 1014.32 1014.31 1014.37 1014.45 1014.51 1014.48 1014.33 1014.04 1013.61 1013.04 1012.38 1011.67 1010.97 1010.31 1009.77 1009.35 1009.11 1009.03 1009.14 1009.41 1009.84 1010.40 1011.06 1011.80 1012.57 1013.36 1014.13
1024.05 1023.59 1023.14 1022.71 1022.28 1021.84 1021.39 1020.90 1020.35 1019.75 1019.11 1018.43 1017.75 1017.10 1016.53 1016.06 1015.72 1015.51 1015.42 1015.42 1015.46 1015.50 1015.48 1015.36 1015.11 1014.72 1014.18 1013.53 1012.79 1012.01 1011.24 1010.52 1009.91 1009.43 1009.11 1008.96 1009.01 1009.24 1009.64 1010.19 1010.86 1011.62 1012.43 1013.25
1024.41 1024.07 1023.77 1023.49 1023.23 1022.96 1022.65 1022.27 1021.81 1021.25 1020.61 1019.91 1019.18 1018.46 1017.80 1017.24 1016.81 1016.51 1016.33 1016.26 1016.25 1016.25 1016.22 1016.12 1015.90 1015.55 1015.06 1014.44 1013.72 1012.93 1012.10 1011.28 1010.51 1009.84 1009.30 1008.92 1008.73 1008.74 1008.95 1009.34 1009.90 1010.59 1011.38 1012.22
1024.64 1024.41 1024.24 1024.10 1023.97 1023.81 1023.59 1023.29 1022.87 1022.34 1021.71 1021.00 1020.25 1019.50 1018.81 1018.21 1017.73 1017.37 1017.13 1016.99 1016.92 1016.87 1016.81 1016.69 1016.49 1016.17 1015.73 1015.17 1014.50 1013.73 1012.90 1012.03 1011.17 1010.35 1009.63 1009.03 1008.60 1008.37 1008.35 1008.54 1008.94 1009.51 1010.23 1011.04
1024.81 1024.68 1024.61 1024.55 1024.49 1024.39 1024.22 1023.94 1023.53 1023.01 1022.39 1021.70 1020.98 1020.26 1019.60 1019.02 1018.55 1018.19 1017.92 1017.74 1017.61 1017.51 1017.39 1017.23 1017.01 1016.71 1016.30 1015.80 1015.19 1014.47 1013.67 1012.80 1011.89 1010.97 1010.10 1009.31 1008.65 1008.16 1007.89 1007.84 1008.02 1008.42 1009.01 1009.75
1025.00 1024.95 1024.93 1024.91 1024.87 1024.77 1024.57 1024.27 1023.86 1023.34 1022.74 1022.10 1021.44 1020.82 1020.25 1019.76 1019.36 1019.05 1018.80 1018.60 1018.43 1018.26 1018.08 1017.86 1017.59 1017.27 1016.88 1016.41 1015.86 1015.21 1014.46 1013.62 1012.69 1011.72 1010.73 1009.77 1008.89 1008.16 1007.63 1007.31 1007.25 1007.43 1007.84 1008.45
1025.28 1025.26 1025.25 1025.22 1025.15 1024.99 1024.74 1024.39 1023.94 1023.43 1022.86 1022.29 1021.75 1021.26 1020.84 1020.50 1020.22 1020.00 1019.80 1019.61 1019.41 1019.18 1018.92 1018.62 1018.29 1017.92 1017.51 1017.07 1016.55 1015.97 1015.28 1014.48 1013.58 1012.58 1011.51 1010.42 1009.36 1008.41 1007.62 1007.04 1006.71 1006.64 1006.84 1007.28
1025.65 1025.63 1025.59 1025.51 1025.35 1025.12 1024.79 1024.38 1023.89 1023.38 1022.87 1022.39 1021.98 1021.65 1021.40 1021.23 1021.11 1021.00 1020.88 1020.72 1020.50 1020.21 1019.86 1019.47 1019.06 1018.63 1018.19 1017.74 1017.26 1016.72 1016.10 1015.36 1014.50 1013.51 1012.41 1011.23 1010.04 1008.91 1007.90 1007.07 1006.49 1006.18 1006.14 1006.38
1026.07 1026.01 1025.91 1025.74 1025.50 1025.17 1024.76 1024.28 1023.78 1023.28 1022.82 1022.45 1022.18 1022.01 1021.94 1021.94 1021.96 1021.97 1021.92 1021.78 1021.54 1021.20 1020.78 1020.30 1019.80 1019.30 1018.82 1018.36 1017.90 1017.41 1016.85 1016.19 1015.39 1014.44 1013.35 1012.15 1010.89 1009.63 1008.46 1007.45 1006.65 1006.12 1005.87 1005.90
1026.42 1026.29 1026.11 1025.85 1025.51 1025.11 1024.63 1024.12 1023.61 1023.15 1022.76 1022.49 1022.34 1022.32 1022.39 1022.53 1022.67 1022.76 1022.77 1022.64 1022.38 1021.99 1021.50 1020.94 1020.37 1019.81 1019.29 1018.82 1018.38 1017.94 1017.45 1016.87 1016.15 1015.27 1014.24 1013.07 1011.81 1010.51 1009.26 1008.13 1007.19 1006.48 1006.04 1005.88
1026.57 1026.35 1026.08 1025.74 1025.34 1024.88 1024.38 1023.87 1023.38 1022.97 1022.66 1022.47 1022.43 1022.51 1022.69 1022.92 1023.13 1023.27 1023.29 1023.16 1022.88 1022.45 1021.90 1021.29 1020.66 1020.06 1019.52 1019.05 1018.63 1018.24 1017.82 1017.32 1016.71 1015.94 1015.00 1013.91 1012.71 1011.45 1010.20 1009.03 1008.02 1007.21 1006.64 1006.32
1026.40 1026.09 1025.74 1025.34 1024.90 1024.43 1023.94 1023.47 1023.04 1022.70 1022.47 1022.37 1022.41 1022.56 1022.79 1023.05 1023.27 1023.42 1023.43 1023.28 1022.97 1022.50 1021.92 1021.28 1020.63 1020.02 1019.48 1019.02 1018.64 1018.29 1017.95 1017.54 1017.03 1016.37 1015.56 1014.60 1013.51 1012.35 1011.18 1010.06 1009.05 1008.20 1007.55 1007.12
1025.83 1025.44 1025.03 1024.61 1024.17 1023.74 1023.31 1022.92 1022.58 1022.33 1022.19 1022.16 1022.24 1022.42 1022.66 1022.91 1023.11 1023.22 1023.20 1023.01 1022.67 1022.19 1021.61 1020.97 1020.33 1019.73 1019.22 1018.79 1018.44 1018.14 1017.86 1017.53 1017.12 1016.59 1015.91 1015.10 1014.16 1013.15 1012.11 1011.09 1010.15 1009.33 1008.66 1008.17
1024.87 1024.43 1024.00 1023.58 1023.19 1022.83 1022.50 1022.23 1022.01 1021.87 1021.81 1021.85 1021.96 1022.15 1022.36 1022.56 1022.71 1022.76 1022.69 1022.47 1022.11 1021.63 1021.07 1020.46 1019.85 1019.30 1018.82 1018.43 1018.12 1017.87 1017.63 1017.37 1017.05 1016.62 1016.07 1015.41 1014.64 1013.79 1012.91 1012.03 1011.20 1010.46 1009.82 1009.30
1023.63 1023.16 1022.74 1022.37 1022.06 1021.81 1021.61 1021.47 1021.39 1021.36 1021.40 1021.49 1021.63 1021.79 1021.96 1022.10 1022.18 1022.17 1022.04 1021.80 1021.43 1020.98 1020.45 1019.89 1019.35 1018.85 1018.42 1018.07 1017.79 1017.57 1017.37 1017.15 1016.88 1016.53 1016.10 1015.56 1014.94 1014.26 1013.54 1012.82 1012.12 1011.47 1010.89 1010.39
1022.27 1021.82 1021.44 1021.15 1020.95 1020.83 1020.77 1020.78 1020.83 1020.92 1021.03 1021.17 1021.31 1021.45 1021.57 1021.64 1021.65 1021.58 1021.41 1021.15 1020.79 1020.37 1019.89 1019.40 1018.93 1018.49 1018.11 1017.80 1017.54 1017.33 1017.13 1016.93 1016.69 1016.39 1016.03 1015.59 1015.10 1014.56 1013.99 1013.42 1012.85 1012.31 1011.80 1011.32
1021.02 1020.62 1020.31 1020.12 1020.04 1020.05 1020.14 1020.27 1020.44 1020.63 1020.80 1020.97 1021.11 1021.22 1021.28 1021.29 1021.23 1021.11 1020.91 1020.63 1020.29 1019.91 1019.49 1019.06 1018.64 1018.26 1017.92 1017.63 1017.38 1017.16 1016.95 1016.74 1016.50 1016.23 1015.91 1015.54 1015.14 1014.71 1014.26 1013.81 1013.36 1012.91 1012.47 1012.04
Thickness
5501 5502 5509 5523 5532 5541 5545 5548 5553 5565 5577 5578 5579 5586 5596 5604 5609 5611 5615 5620 5625 5630 5635 5639 5642 5644 5646 5646 5647 5648 5647 5646 5646 5644 5642 5640 5638 5637 5637 5637 5637 5636 5635 5633
5487 5496 5513 5520 5524 5529 5535 5540 5545 5556 5568 5569 5567 5575 5586 5594 5602 5608 5611 5614 5618 5622 5626 5629 5633 5635 5637 5639 5640 5640 5640 5640 5640 5639 5637 5635 5632 5629 5629 5629 5628 5628 5628 5626
5483 5497 5507 5510 5512 5518 5525 5532 5539 5546 5553 5558 5558 5561 5573 5584 5593 5600 5605 5610 5613 5618 5620 5622 5624 5626 5628 5630 5632 5634 5633 5633 5633 5632 5629 5626 5623 5621 5619 5619 5619 5619 5619 5618
5477 5490 5498 5500 5504 5511 5518 5530 5535 5539 5537 5536 5546 5541 5560 5573 5581 5589 5595 5599 5605 5610 5613 5616 5618 5618 5621 5623 5625 5626 5625 5625 5625 5624 5623 5621 5619 5615 5614 5613 5612 5611 5611 5610
5469 5482 5489 5492 5501 5507 5512 5522 5526 5530 5528 5526 5533 5532 5548 5563 5572 5582 5588 5592 5597 5602 5606 5609 5611 5613 5614 5615 5616 5617 5617 5617 5616 5616 5616 5615 5612 5609 5607 5605 5605 5604 5603 5602
5467 5477 5484 5491 5497 5502 5507 5510 5513 5514 5513 5513 5526 5527 5540 5555 5573 5581 5583 5585 5589 5593 5597 5600 5602 5604 5604 5606 5607 5608 5608 5608 5607 5607 5607 5607 5605 5602 5600 5598 5597 5595 5594 5593
5455 5468 5478 5485 5485 5490 5494 5493 5495 5498 5499 5509 5524 5526 5539 5558 5569 5576 5577 5578 5580 5584 5587 5589 5592 5593 5595 5596 5598 5599 5600 5599 5599 5599 5598 5599 5598 5597 5595 5592 5591 5588 5587 5585
5439 5450 5469 5478 5482 5483 5486 5488 5489 5495 5498 5504 5516 5520 5534 5549 5559 5566 5569 5570 5571 5574 5577 5580 5584 5586 5587 5588 5589 5590 5592 5591 5591 5591 5590 5589 5589 5588 5587 5586 5584 5582 5581 5579
5433 5446 5467 5476 5481 5481 5480 5481 5488 5486 5487 5495 5506 5514 5526 5539 5546 5552 5556 5558 5561 5564 5567 5570 5574 5576 5579 5580 5581 5583 5583 5583 5582 5582 5581 5580 5580 5580 5579 5577 5576 5574 5573 5571
5432 5436 5454 5465 5473 5475 5479 5480 5477 5477 5483 5491 5501 5507 5515 5524 5533 5541 5544 5546 5550 5554 5556 5559 5563 5566 5568 5570 5571 5573 5574 5574 5573 5573 5573 5572 5571 5571 5570 5569 5567 5566 5564 5563
5430 5428 5439 5450 5455 5462 5468 5471 5471 5470 5476 5485 5489 5500 5514 5518 5527 5530 5533 5536 5539 5542 5546 5549 5552 5554 5557 5559 5560 5562 5563 5563 5563 5563 5563 5563 5562 5561 5560 5559 5559 5557 5556 5554
5424 5419 5422 5436 5450 5457 5462 5465 5465 5465 5466 5471 5477 5490 5504 5506 5512 5518 5521 5524 5528 5531 5535 5537 5539 5542 5544 5547 5549 5551 5552 5553 5553 5553 5553 5553 5553 5552 5551 5550 5549 5549 5547 5546
5419 5411 5413 5426 5436 5445 5450 5456 5459 5459 5456 5456 5466 5483 5492 5494 5499 5504 5508 5510 5514 5518 5522 5525 5527 5530 5532 5534 5536 5539 5540 5541 5542 5543 5543 5542 5542 5542 5542 5541 5540 5539 5538 5536
5415 5404 5409 5421 5430 5433 5438 5447 5452 5452 5451 5454 5466 5475 5481 5483 5487 5491 5494 5497 5500 5505 5509 5513 5514 5517 5519 5522 5524 5527 5528 5530 5531 5531 5532 5531 5531 5532 5533 5532 5531 5530 5529 5527
5402 5399 5403 5415 5425 5428 5434 5442 5446 5447 5451 5454 5463 5466 5474 5475 5477 5479 5482 5487 5490 5493 5496 5500 5502 5505 5507 5510 5512 5515 5517 5519 5520 5520 5520 5520 5520 5521 5522 5521 5521 5520 5519 5517
5386 5390 5396 5407 5420 5423 5426 5434 5441 5446 5449 5451 5454 5457 5462 5464 5464 5466 5471 5476 5478 5480 5483 5486 5490 5493 5495 5497 5500 5503 5505 5507 5509 5509 5508 5509 5509 5509 5510 5510 5510 5508 5507 5506
5376 5381 5386 5395 5405 5414 5415 5422 5429 5436 5439 5444 5449 5451 5447 5449 5453 5456 5461 5464 5466 5467 5470 5474 5477 5480 5483 5485 5488 5490 5492 5495 5496 5497 5497 5498 5498 5498 5498 5499 5498 5497 5495 5494
5374 5374 5372 5381 5392 5401 5411 5412 5418 5424 5423 5427 5434 5435 5437 5438 5441 5445 5448 5451 5453 5456 5458 5461 5465 5468 5471 5473 5475 5478 5480 5482 5484 5484 5485 5486 5486 5486 5486 5486 5485 5485 5484 5483
5376 5371 5368 5371 5379 5389 5400 5402 5403 5411 5412 5414 5420 5423 5424 5428 5431 5432 5437 5439 5441 5443 5446 5450 5453 5456 5458 5461 5463 5466 5468 5469 5471 5472 5473 5474 5475 5475 5474 5474 5473 5473 5472 5471
5368 5364 5363 5364 5375 5383 5392 5391 5394 5400 5403 5404 5408 5411 5413 5419 5420 5422 5425 5427 5429 5432 5435 5438 5441 5444 5446 5448 5451 5453 5454 5456 5457 5459 5460 5462 5463 5463 5462 5462 5462 5461 5461 5460
5353 5353 5355 5357 5361 5370 5375 5380 5390 5394 5398 5392 5395 5399 5402 5405 5409 5411 5413 5415 5418 5421 5424 5427 5430 5432 5434 5437 5439 5441 5441 5442 5444 5446 5448 5449 5450 5450 5450 5450 5450 5450 5449 5448
5343 5344 5344 5348 5354 5364 5366 5371 5375 5378 5379 5381 5384 5386 5389 5391 5395 5398 5400 5402 5405 5408 5412 5415 5417 5419 5422 5425 5427 5428 5429 5430 5433 5435 5436 5436 5437 5438 5438 5438 5438 5437 5437 5436
5335 5338 5340 5345 5351 5352 5355 5358 5362 5365 5367 5370 5374 5377 5379 5381 5384 5386 5388 5390 5394 5397 5400 5403 5406 5408 5410 5413 5415 5416 5417 5419 5421 5422 5423 5423 5424 5424 5425 5425 5425 5425 5424 5424
5329 5332 5334 5335 5341 5344 5346 5348 5351 5354 5357 5361 5365 5368 5371 5371 5373 5374 5377 5380 5383 5386 5389 5392 5394 5396 5397 5400 5402 5404 5405 5407 5408 5409 5410 5410 5411 5411 5412 5413 5413 5413 5412 5412
5320 5322 5326 5329 5333 5336 5340 5340 5343 5346 5349 5352 5355 5358 5360 5362 5363 5364 5366 5369 5372 5375 5377 5380 5382 5384 5386 5388 5390 5392 5393 5395 5395 5396 5397 5398 5399 5399 5399 5399 5400 5401 5401 5401
5313 5315 5319 5326 5327 5326 5330 5333 5335 5336 5339 5342 5345 5347 5349 5351 5353 5354 5356 5358 5361 5363 5366 5368 5370 5372 5374 5376 5378 5380 5382 5384 5384 5385 5385 5386 5386 5387 5388 5387 5388 5389 5390 5391